Temperature
15 15 15 16 19 20 21 23 23 22 23 23 23 23 24 25 25 24 21 20 20 19 17 16 16 15 15 15 15 15 14 14 14 14 14 14 13 13 13 13 13 13 13 13 13 13 13 13 13
15 15 15 18 20 20 21 23 22 23 23 21 21 22 23 24 22 21 21 20 19 18 17 16 15 15 15 15 15 15 14 14 14 13 13 13 13 13 13 13 13 13 12 12 12 12 12 13 13
14 15 17 19 20 21 22 22 23 23 21 21 22 22 23 23 21 20 21 21 19 18 16 15 15 15 15 14 14 14 14 14 13 13 13 13 13 12 12 12 12 12 12 12 12 12 12 12 12
14 15 17 19 20 21 22 22 22 22 21 20 22 23 22 20 19 20 21 20 18 17 16 15 15 14 14 14 14 14 14 13 13 13 13 13 12 12 12 12 12 12 12 12 12 12 12 12 12
14 17 18 19 20 21 22 22 20 21 22 21 21 23 22 20 21 21 21 20 18 16 15 15 14 14 14 14 14 14 13 13 13 13 12 12 12 12 12 12 12 11 12 12 11 11 11 11 12
15 18 18 19 20 21 21 20 20 21 22 21 21 23 22 20 20 20 20 19 17 16 15 14 14 14 14 14 14 13 13 13 12 12 12 12 12 12 12 12 11 11 11 11 11 11 11 11 12
16 17 18 20 20 21 21 20 21 22 22 22 21 23 21 19 19 19 19 17 16 15 14 14 14 14 14 13 13 13 13 12 12 12 12 12 11 11 11 11 11 11 11 10 10 10 11 11 11
15 17 18 19 19 20 21 20 20 21 22 21 21 23 22 19 20 18 17 16 15 14 14 14 13 13 13 13 13 13 13 12 12 12 12 12 11 11 11 11 11 11 10 10 10 10 10 11 11
14 16 17 19 19 20 20 20 20 19 20 20 20 20 19 19 19 18 16 15 14 14 14 13 13 13 13 13 12 12 12 12 12 12 12 11 11 10 10 10 11 10 10 10 10 10 10 10 10
14 16 17 19 20 20 20 20 20 20 20 20 19 18 18 19 19 18 17 16 15 15 14 13 13 13 13 12 12 12 12 12 11 11 11 11 10 10 10 10 10 10 10 10 10 10 10 10 9
15 16 18 19 18 18 19 19 19 20 21 21 21 18 18 18 17 17 18 18 17 16 15 14 13 13 13 12 12 12 11 11 11 11 11 11 10 10 10 10 10 10 10 9 10 10 9 9 9
15 16 17 18 17 17 18 19 19 19 21 20 20 19 18 17 17 18 18 17 16 15 15 15 14 13 13 13 12 12 12 11 11 11 11 11 11 10 10 10 10 10 9 10 9 9 9 9 9
15 16 16 16 16 17 17 18 19 19 19 19 18 18 18 18 18 18 18 17 16 16 15 15 14 14 13 13 12 12 12 12 11 11 11 11 11 11 11 10 10 10 10 10 9 9 9 9 8
15 16 16 16 16 16 17 18 18 18 18 18 18 17 17 18 18 17 17 16 16 17 16 16 15 14 13 13 13 12 12 12 11 12 11 11 11 11 11 10 10 10 10 9 9 9 9 8 8
15 15 16 16 16 17 17 17 18 18 18 18 18 18 17 17 17 17 18 18 18 18 17 16 15 14 14 13 13 12 12 12 12 12 11 11 11 11 11 10 10 10 10 9 9 8 8 8 8
14 14 14 16 17 16 16 16 19 19 18 18 19 18 18 17 17 18 18 17 17 17 16 16 16 15 14 14 13 13 12 12 12 12 12 11 11 11 10 10 10 10 10 9 9 9 8 8 8
13 13 14 16 17 17 16 17 19 19 18 18 19 19 18 18 17 17 17 17 17 16 16 16 16 16 15 14 13 12 12 12 12 12 12 11 11 11 10 10 10 10 9 9 9 9 8 8 8
13 14 15 16 17 16 16 17 19 18 18 19 19 19 19 18 18 18 18 17 17 16 16 16 15 15 14 13 12 12 12 12 12 12 12 12 11 11 10 10 10 9 9 9 9 8 8 8 8
15 15 15 16 17 16 16 17 18 19 18 19 19 19 19 19 19 18 17 17 16 15 15 15 15 15 14 13 13 13 13 12 12 12 12 11 11 11 10 10 10 9 9 9 9 8 8 8 8
13 13 14 15 16 16 16 17 18 19 19 18 19 19 19 19 19 18 17 16 16 16 16 16 15 15 15 15 15 15 14 12 12 12 12 12 11 11 10 10 10 10 9 9 9 8 8 8 8
12 12 14 14 14 15 15 16 17 18 18 18 18 19 19 19 19 18 17 17 17 16 16 17 17 16 16 16 14 13 12 11 11 12 12 12 12 11 11 10 10 10 9 9 9 9 8 8 8
11 13 13 13 13 13 14 15 17 18 18 18 18 18 19 19 19 19 18 17 17 18 18 18 17 17 17 16 14 13 13 13 14 14 13 12 12 11 11 10 10 9 9 9 9 9 9 8 8
11 13 13 12 12 13 13 14 17 18 17 18 19 19 18 18 18 18 18 18 18 19 18 18 17 17 16 16 15 14 14 15 14 13 12 12 12 12 11 10 10 10 9 9 9 9 9 8 8
11 11 11 11 11 10 13 13 15 18 18 19 19 19 19 18 18 18 18 18 18 18 18 18 17 17 16 16 15 15 15 14 13 12 12 12 12 12 11 11 10 10 10 9 9 9 9 9 8
10 9 9 9 10 11 14 14 15 18 18 19 19 19 19 18 18 18 18 18 18 18 18 18 18 17 17 16 15 15 15 14 13 13 13 12 12 12 12 11 10 10 10 10 9 9 9 9 9
9 9 10 11 12 13 14 14 16 18 18 18 18 18 18 18 18 18 18 18 18 18 18 18 18 18 17 16 16 16 15 14 13 13 13 12 13 13 13 12 11 10 10 10 9 9 9 9 9
8 9 11 12 13 13 13 15 17 16 17 17 17 17 17 17 17 17 17 17 18 18 18 18 18 18 17 17 16 16 15 14 14 13 12 12 12 12 12 12 11 10 10 10 9 9 9 9 9
9 9 10 9 11 12 13 14 16 16 16 16 17 17 16 16 16 16 16 17 17 17 17 18 18 18 17 17 16 16 16 15 14 13 12 12 12 12 11 11 11 10 10 10 9 9 9 9 9
8 8 8 9 11 12 13 15 16 16 16 16 17 17 16 16 16 15 15 16 17 17 17 17 17 17 17 16 16 16 15 14 14 13 12 12 12 11 11 11 11 10 10 10 9 9 9 9 9
7 7 8 9 9 12 13 15 15 16 16 16 16 15 15 15 15 15 15 15 16 16 17 17 17 17 17 16 16 15 15 14 13 12 12 12 11 11 11 10 10 10 10 10 9 9 9 9 9
Wind_Speed
6 5 4 4 7 8 16 12 10 7 7 7 7 7 8 9 6 1 4 16 19 22 24 26 24 23 21 20 20 19 19 18 17 17 16 16 15 15 15 15 15 15 15 15 15 16 16 17 17
7 5 5 6 9 13 13 14 15 12 5 4 6 8 7 8 1 4 8 16 20 23 23 25 25 24 22 21 20 19 19 18 17 17 16 15 15 15 15 15 15 15 15 15 15 16 16 16 16
7 5 6 6 11 15 10 8 12 11 7 6 6 7 6 4 4 6 10 19 21 22 22 24 25 24 23 21 20 20 19 18 17 17 16 15 15 15 15 15 15 15 14 14 15 15 15 15 15
7 6 6 11 19 18 13 4 3 7 8 8 7 6 5 1 2 7 15 20 22 21 21 25 25 24 23 22 21 20 19 18 18 17 16 15 15 16 15 15 14 14 14 13 14 14 14 14 14
6 7 11 16 21 17 14 11 5 6 6 8 9 6 6 3 4 11 18 21 22 21 20 24 24 24 23 22 21 20 19 18 17 17 16 16 16 15 15 14 14 13 13 13 13 13 13 13 13
8 7 13 19 21 17 15 14 12 12 10 7 7 8 5 5 8 14 19 20 20 20 19 23 24 23 23 22 21 20 19 18 17 17 16 16 15 15 14 14 13 13 13 13 13 13 12 12 12
11 11 18 20 18 18 16 13 16 15 15 12 7 7 6 8 10 15 18 18 19 19 18 20 22 22 22 22 22 21 19 18 18 17 16 16 15 15 14 13 13 13 12 12 12 12 11 11 11
10 8 17 19 19 17 11 12 12 16 16 10 9 9 7 11 14 17 17 17 18 18 18 18 21 21 21 21 21 20 19 18 18 17 16 16 15 14 14 13 13 12 12 11 11 11 11 10 10
9 12 19 20 15 12 9 11 10 8 10 8 8 5 2 16 19 19 17 16 17 18 18 18 18 19 20 20 20 20 19 18 17 17 17 16 13 13 13 12 12 12 11 11 11 10 10 10 9
13 19 25 16 14 11 9 11 9 8 12 11 9 4 9 18 21 22 22 22 22 22 21 18 18 18 18 17 18 17 17 17 16 15 16 13 12 11 11 13 11 11 11 10 10 10 9 6 7
15 22 21 19 15 13 12 11 9 11 12 13 14 14 15 19 21 22 23 24 24 23 22 20 19 18 17 14 15 14 14 15 15 15 15 13 11 11 11 11 11 11 10 9 10 9 6 5 4
19 22 21 19 16 15 15 12 12 14 13 7 9 12 18 22 23 24 24 23 22 23 23 21 20 18 18 16 14 14 12 12 12 14 15 13 10 10 10 9 10 9 8 8 7 5 6 5 5
27 23 20 20 18 18 17 18 16 17 15 9 6 12 18 22 24 24 22 21 21 22 23 22 21 20 18 16 13 13 13 13 14 14 15 14 11 10 10 9 9 9 8 8 7 6 6 5 5
19 23 22 20 20 19 20 21 20 19 15 13 11 14 18 22 24 22 21 21 22 23 23 22 22 21 19 16 14 13 13 13 14 14 15 15 12 11 10 9 9 9 9 8 7 7 6 5 4
19 20 22 23 22 19 16 24 26 22 17 17 16 16 17 20 21 23 24 24 24 23 23 23 22 21 20 18 16 13 14 14 13 14 16 16 14 13 11 9 9 9 9 9 7 7 6 4 4
17 20 23 23 23 21 18 26 22 20 21 22 20 18 17 19 21 22 23 22 22 21 22 23 19 22 21 18 16 13 14 14 13 14 15 17 16 15 12 9 9 10 10 9 7 6 6 5 4
16 22 26 23 21 20 23 24 19 17 19 21 21 20 19 19 21 21 22 22 22 22 22 23 23 23 21 19 15 14 13 14 14 14 15 17 17 16 14 10 10 12 10 9 7 7 6 5 5
21 26 27 26 18 23 25 26 20 15 18 21 21 21 20 20 21 21 22 22 21 21 22 22 22 22 20 16 13 11 12 13 14 14 15 18 17 18 15 11 12 13 9 9 9 8 6 5 5
24 25 26 23 18 19 25 27 25 21 19 21 21 21 21 21 21 20 20 21 21 21 22 23 23 22 19 16 16 16 15 14 14 14 17 19 19 19 16 12 13 12 11 11 11 9 9 6 5
26 26 24 18 16 16 21 25 23 24 24 22 23 23 23 22 20 18 19 20 22 23 24 24 24 23 22 19 18 17 16 14 13 12 16 19 20 20 17 15 13 13 11 12 12 11 8 6 6
28 28 25 18 13 15 15 21 24 23 23 23 23 23 23 23 22 20 20 21 22 24 25 23 25 25 25 23 16 14 12 11 12 15 15 18 21 21 20 18 15 14 13 12 13 13 12 8 8
27 26 23 20 15 12 16 16 22 22 23 24 24 24 24 23 23 21 20 20 22 23 23 24 25 25 25 24 20 21 17 17 20 16 16 17 21 21 21 20 18 16 14 14 14 14 12 10 8
22 20 21 20 19 16 16 14 17 17 22 24 24 24 24 23 22 22 21 20 21 21 21 23 24 25 25 25 25 23 21 19 16 16 18 18 18 20 21 21 19 17 15 16 15 14 14 11 10
16 14 15 16 14 19 24 19 16 18 22 22 22 23 23 22 22 21 20 18 18 18 19 20 23 25 25 26 26 26 25 22 19 20 18 17 14 16 20 20 19 18 16 16 16 15 16 13 12
18 13 10 13 14 17 21 20 18 17 18 20 20 20 20 20 20 20 20 19 18 18 19 20 23 24 25 26 26 26 26 25 23 21 20 18 15 16 20 20 19 18 17 17 16 15 15 15 14
22 22 15 12 15 17 19 20 18 18 16 17 18 18 17 18 18 19 19 19 19 19 20 21 23 23 24 25 26 25 25 20 18 21 18 19 16 17 20 21 20 19 19 17 16 14 15 14 14
16 21 20 13 13 14 13 15 16 12 16 17 18 16 16 15 16 17 17 17 17 18 19 21 22 22 23 25 25 24 25 23 21 21 20 17 17 16 19 20 20 19 18 18 16 13 15 14 14
15 14 12 12 12 14 13 18 13 14 16 16 16 15 14 13 12 12 12 13 14 15 16 18 20 21 22 23 22 20 23 23 22 20 20 19 19 17 18 19 19 19 18 17 16 14 14 14 13
14 14 11 12 13 12 13 11 10 12 13 14 15 15 13 12 11 10 9 9 10 11 13 15 17 18 19 20 21 21 21 22 21 20 20 19 18 18 18 19 19 19 18 18 16 16 15 15 14
11 12 13 13 11 16 14 9 6 9 9 10 10 9 9 9 8 7 7 7 7 9 11 13 14 16 17 18 19 20 20 20 20 20 20 19 19 18 18 18 18 18 18 17 17 17 16 16 15
Wind_Direction
189 188 197 201 209 226 235 226 220 207 207 210 199 198 209 201 197 185 106 157 153 156 160 161 160 158 154 149 145 141 138 136 133 130 125 120 117 115 112 108 103 99 97 96 95 93 89 87 86
181 179 195 210 223 225 232 228 222 218 195 175 198 210 211 214 211 110 144 157 155 156 159 161 160 158 154 151 148 144 141 139 136 133 129 124 121 118 114 110 106 104 101 99 98 96 93 90 89
177 197 206 211 225 228 230 221 228 221 210 203 197 211 216 198 163 151 152 156 156 157 159 157 159 158 156 153 151 148 146 143 140 137 134 129 125 121 116 112 110 107 106 104 102 99 98 95 93
181 193 218 230 230 228 235 204 189 205 208 218 215 203 195 116 129 141 148 158 157 158 158 156 161 159 158 156 154 151 149 146 143 141 137 134 128 123 118 115 113 112 111 109 105 103 103 100 97
204 210 219 230 237 234 234 236 228 220 201 199 211 213 184 125 119 142 155 160 159 158 158 158 162 161 160 159 155 153 151 149 146 144 140 137 131 126 123 120 119 119 118 115 112 108 107 103 101
199 216 227 233 235 234 233 233 236 240 232 215 215 219 185 133 148 153 158 162 160 158 159 159 163 163 162 159 157 155 153 151 150 147 143 140 137 133 129 127 126 125 123 121 117 114 111 107 104
216 219 235 241 243 239 234 227 230 236 235 224 215 214 179 156 152 154 157 160 160 161 162 162 165 165 164 162 159 157 155 153 153 150 146 144 141 139 136 134 131 130 127 124 120 118 115 110 106
226 230 238 238 241 243 232 221 230 234 239 231 216 218 199 158 150 152 154 160 163 166 169 168 168 168 168 165 161 158 157 156 155 151 147 144 145 143 140 140 137 134 131 128 123 120 116 111 106
216 229 234 229 234 239 219 218 224 230 229 214 212 233 84 136 149 151 156 164 170 175 176 175 173 171 170 168 163 161 159 159 156 152 146 150 155 151 151 141 140 139 137 133 127 122 117 116 111
210 228 233 234 233 236 217 221 219 209 215 212 203 179 142 151 160 164 169 173 177 181 181 179 178 174 171 168 167 169 168 167 170 165 163 166 161 155 149 138 142 141 137 135 129 126 132 147 131
217 232 237 237 235 239 235 230 224 226 224 219 210 186 165 168 174 179 181 182 182 181 181 182 181 177 174 171 172 173 173 173 176 171 170 168 161 156 158 156 154 150 152 148 141 154 151 147 130
228 234 238 239 234 236 238 239 233 231 235 233 224 183 173 180 186 189 189 187 183 183 184 183 182 180 180 177 177 176 176 176 175 175 173 171 170 171 169 170 166 165 166 159 163 161 152 149 147
229 235 235 239 239 239 243 242 244 243 245 250 228 183 188 191 196 198 194 188 186 187 186 186 185 184 182 181 181 182 181 179 177 177 179 179 176 177 173 174 171 173 169 171 171 170 161 160 153
230 235 238 237 237 237 241 246 243 244 243 239 223 207 204 202 201 198 196 193 192 192 189 187 188 187 186 186 185 185 184 182 180 180 184 184 183 180 178 178 178 177 178 178 179 175 170 166 163
233 236 239 236 234 233 239 247 240 240 238 237 231 224 217 213 207 204 200 198 195 193 190 189 189 189 189 190 189 186 185 184 185 185 187 187 187 184 182 183 183 183 182 180 181 175 177 168 169
219 227 236 232 227 227 224 245 238 231 231 236 235 230 224 219 214 211 207 204 199 193 191 190 189 192 192 192 190 188 188 188 188 188 189 191 190 188 187 188 188 184 182 184 184 184 184 182 186
211 221 228 230 220 218 220 243 243 227 225 232 232 230 226 222 218 215 210 206 201 196 193 191 191 193 193 192 191 191 190 192 192 191 192 194 193 192 192 193 190 186 187 189 188 193 193 189 187
212 220 226 227 217 215 224 236 237 228 226 231 231 229 226 224 221 214 209 205 201 198 195 194 193 195 192 191 191 191 194 196 196 195 196 195 195 194 196 195 193 189 191 193 193 192 193 194 184
228 226 228 229 222 218 230 237 238 233 229 232 232 229 226 225 225 216 208 204 200 198 196 195 194 194 190 190 192 194 198 199 199 200 199 198 198 196 197 196 194 194 197 198 197 192 190 191 181
231 232 231 231 223 224 237 241 240 237 233 232 233 230 228 227 224 216 208 203 201 199 198 197 196 194 193 195 197 199 199 200 200 198 201 201 201 199 198 199 197 196 199 200 199 196 196 188 191
226 227 227 225 219 224 241 247 240 237 234 232 233 233 230 226 224 216 208 205 202 201 200 198 197 196 196 196 195 194 195 196 198 201 202 203 203 202 200 202 201 199 200 201 200 199 200 196 195
228 225 229 226 221 224 219 246 237 230 229 228 229 228 228 226 225 221 213 207 204 203 200 200 199 198 197 195 195 192 194 199 203 202 202 201 202 204 204 204 204 202 203 204 202 202 205 202 197
228 225 224 226 228 236 225 239 245 223 227 225 224 224 224 224 223 222 217 210 207 204 200 200 200 200 198 196 198 198 202 206 204 202 202 200 201 204 205 205 205 205 205 206 202 201 205 206 206
219 216 222 227 230 234 227 228 246 223 225 225 222 222 223 222 221 222 220 215 210 204 200 200 200 201 200 199 200 202 205 205 202 200 200 199 199 202 205 206 205 206 206 206 204 202 204 207 210
208 195 201 208 216 230 221 224 239 232 225 226 223 222 222 221 220 220 218 213 210 204 200 199 200 201 200 200 202 204 207 207 205 202 202 199 199 201 204 203 206 206 206 205 203 202 205 207 208
209 204 206 207 217 226 216 225 234 230 225 228 231 229 225 221 219 219 218 215 212 206 202 200 201 202 200 201 203 206 207 208 209 207 203 202 202 203 202 203 206 206 204 203 202 203 205 206 208
212 213 221 232 234 225 213 228 236 225 222 223 227 228 226 223 221 220 218 215 212 208 204 202 201 202 201 201 202 205 206 207 207 206 206 205 205 203 201 201 204 205 204 201 200 204 203 204 207
217 210 209 217 218 224 219 222 220 203 209 210 216 220 223 222 219 218 215 212 211 208 205 203 204 203 202 201 202 203 204 205 206 205 205 205 204 200 199 200 202 203 203 200 199 203 203 202 205
203 208 210 213 223 222 224 225 216 209 208 210 217 222 225 222 216 213 211 208 205 202 198 198 201 202 201 201 201 202 203 204 204 205 205 204 203 199 198 198 199 200 201 199 199 201 199 202 204
202 205 206 205 207 220 230 229 169 206 211 212 218 225 228 225 218 211 204 195 191 193 194 195 197 198 199 198 199 201 201 201 202 204 203 202 202 200 198 196 198 200 200 199 200 200 200 202 205
Height
1511 1513 1515 1517 1516 1509 1500 1492 1492 1493 1494 1494 1495 1496 1494 1493 1495 1499 1497 1497 1500 1504 1508 1512 1516 1520 1523 1526 1529 1531 1533 1534 1536 1537 1538 1539 1540 1541 1542 1542 1542 1543 1544 1544 1544 1545 1545 1545 1545
1511 1512 1516 1515 1508 1504 1495 1488 1490 1489 1491 1494 1495 1495 1494 1493 1495 1495 1494 1496 1500 1504 1508 1512 1515 1519 1523 1526 1528 1531 1533 1534 1536 1537 1539 1540 1541 1541 1542 1543 1543 1544 1544 1545 1545 1545 1546 1546 1545
1510 1511 1514 1508 1500 1494 1487 1485 1486 1488 1491 1493 1493 1493 1492 1492 1493 1493 1494 1496 1500 1504 1508 1512 1515 1519 1523 1526 1528 1530 1532 1535 1536 1538 1539 1540 1541 1542 1543 1543 1544 1544 1545 1545 1546 1546 1546 1546 1547
1509 1512 1510 1502 1492 1485 1482 1484 1487 1487 1490 1492 1491 1491 1491 1491 1491 1492 1493 1496 1500 1504 1508 1511 1515 1519 1522 1525 1528 1530 1533 1535 1536 1538 1539 1540 1542 1542 1543 1544 1544 1545 1546 1546 1547 1547 1547 1547 1548
1508 1507 1502 1495 1486 1481 1483 1485 1488 1487 1487 1488 1490 1487 1488 1489 1488 1490 1493 1496 1499 1504 1508 1512 1515 1519 1522 1525 1528 1530 1533 1535 1537 1538 1540 1541 1542 1543 1543 1544 1545 1546 1546 1547 1547 1548 1548 1548 1549
1505 1501 1494 1486 1480 1479 1482 1485 1486 1485 1485 1487 1488 1486 1487 1487 1488 1490 1493 1496 1500 1504 1508 1512 1515 1519 1522 1525 1528 1531 1533 1535 1537 1538 1540 1541 1542 1543 1544 1545 1545 1546 1547 1548 1548 1549 1549 1550 1550
1499 1494 1485 1479 1476 1476 1478 1482 1483 1481 1481 1483 1485 1484 1485 1486 1487 1489 1493 1497 1501 1504 1508 1512 1515 1519 1522 1525 1528 1530 1533 1535 1537 1538 1540 1541 1542 1543 1544 1545 1546 1547 1548 1548 1549 1550 1550 1551 1551
1494 1490 1481 1477 1475 1473 1475 1478 1479 1479 1478 1481 1484 1482 1482 1485 1485 1489 1492 1497 1500 1504 1508 1511 1515 1518 1521 1524 1527 1530 1532 1535 1536 1538 1540 1541 1542 1544 1545 1546 1546 1547 1548 1549 1550 1550 1551 1551 1552
1491 1487 1474 1471 1472 1471 1473 1475 1476 1476 1477 1478 1480 1480 1481 1481 1484 1487 1491 1495 1498 1502 1506 1510 1514 1517 1520 1524 1526 1529 1532 1534 1536 1538 1539 1541 1543 1544 1545 1546 1547 1548 1549 1550 1550 1551 1552 1552 1553
1484 1475 1466 1467 1468 1469 1471 1472 1472 1474 1473 1475 1477 1477 1477 1480 1482 1484 1487 1490 1494 1498 1503 1507 1511 1515 1518 1522 1525 1528 1531 1533 1535 1537 1539 1541 1543 1544 1545 1546 1547 1548 1549 1550 1551 1551 1552 1553 1554
1473 1465 1464 1466 1468 1470 1469 1470 1470 1470 1468 1469 1471 1474 1475 1477 1480 1482 1484 1486 1490 1495 1500 1504 1508 1512 1516 1519 1523 1526 1529 1531 1534 1536 1538 1540 1542 1543 1544 1545 1547 1548 1549 1550 1551 1552 1553 1554 1554
1465 1462 1463 1463 1467 1468 1468 1467 1467 1467 1466 1467 1469 1471 1471 1474 1477 1479 1482 1485 1489 1493 1497 1501 1505 1509 1513 1517 1520 1523 1526 1529 1532 1534 1536 1538 1540 1542 1543 1545 1546 1547 1549 1550 1551 1552 1553 1553 1554
1460 1458 1460 1463 1464 1465 1466 1464 1463 1463 1464 1465 1466 1468 1469 1471 1473 1477 1481 1484 1487 1490 1494 1497 1502 1506 1510 1514 1517 1521 1524 1526 1529 1531 1534 1536 1538 1540 1542 1543 1545 1546 1548 1549 1550 1552 1553 1553 1554
1453 1456 1457 1458 1459 1461 1461 1459 1460 1457 1461 1462 1463 1464 1465 1467 1470 1474 1478 1481 1483 1486 1490 1494 1498 1502 1506 1510 1514 1517 1521 1524 1527 1529 1531 1534 1536 1538 1540 1542 1543 1545 1547 1548 1550 1551 1552 1553 1553
1452 1453 1451 1451 1453 1454 1458 1453 1450 1453 1456 1457 1458 1460 1461 1463 1466 1469 1471 1474 1478 1482 1486 1490 1494 1499 1503 1507 1511 1514 1517 1521 1524 1526 1529 1531 1534 1536 1538 1540 1542 1544 1545 1547 1548 1550 1551 1552 1552
1447 1448 1445 1440 1445 1448 1455 1442 1440 1446 1449 1451 1452 1454 1456 1458 1460 1463 1467 1471 1475 1479 1483 1486 1491 1495 1499 1503 1507 1511 1514 1517 1520 1523 1526 1529 1531 1534 1536 1538 1540 1542 1543 1545 1546 1548 1549 1550 1551
1439 1436 1433 1433 1435 1439 1442 1435 1434 1439 1442 1444 1445 1447 1450 1452 1455 1458 1462 1466 1470 1474 1478 1482 1486 1490 1494 1499 1504 1507 1511 1514 1517 1520 1523 1525 1528 1531 1533 1535 1537 1539 1541 1543 1544 1546 1548 1549 1550
1425 1424 1423 1423 1425 1432 1432 1429 1430 1433 1436 1437 1438 1440 1443 1446 1448 1451 1455 1459 1464 1469 1473 1477 1481 1486 1491 1495 1500 1503 1507 1509 1512 1515 1518 1522 1524 1527 1530 1532 1535 1537 1538 1540 1542 1544 1546 1547 1548
1415 1416 1416 1416 1420 1426 1424 1423 1423 1426 1429 1430 1431 1433 1436 1439 1442 1446 1450 1453 1458 1462 1467 1471 1475 1480 1485 1489 1492 1496 1499 1503 1507 1510 1513 1517 1520 1523 1526 1529 1531 1533 1535 1538 1540 1542 1543 1545 1546
1416 1415 1414 1416 1418 1422 1419 1417 1416 1417 1419 1422 1424 1426 1429 1432 1436 1439 1443 1446 1450 1454 1459 1464 1468 1473 1477 1481 1485 1490 1494 1498 1502 1505 1508 1512 1515 1518 1521 1524 1527 1529 1532 1534 1536 1538 1540 1542 1543
1412 1413 1412 1416 1418 1419 1419 1414 1410 1408 1412 1415 1417 1419 1421 1424 1428 1432 1435 1438 1442 1447 1451 1455 1460 1465 1470 1475 1480 1485 1490 1493 1496 1498 1501 1505 1509 1512 1516 1519 1523 1525 1528 1530 1532 1535 1537 1538 1540
1406 1407 1411 1413 1418 1416 1416 1410 1397 1398 1402 1405 1408 1410 1413 1416 1420 1424 1428 1431 1434 1439 1444 1448 1453 1458 1463 1467 1472 1476 1479 1482 1486 1490 1494 1498 1502 1506 1510 1514 1517 1520 1523 1526 1528 1531 1533 1535 1536
1401 1403 1409 1412 1414 1414 1411 1409 1390 1389 1392 1393 1396 1400 1404 1408 1412 1416 1420 1423 1427 1432 1436 1441 1446 1450 1455 1459 1463 1468 1472 1476 1481 1485 1488 1492 1495 1499 1503 1508 1511 1515 1518 1521 1524 1526 1529 1531 1533
1400 1405 1408 1410 1414 1413 1401 1405 1389 1380 1380 1382 1386 1391 1395 1400 1404 1408 1412 1416 1420 1424 1428 1433 1438 1442 1447 1451 1455 1460 1464 1469 1473 1477 1480 1484 1488 1492 1496 1501 1505 1508 1512 1515 1518 1521 1524 1526 1528
1396 1402 1407 1407 1405 1394 1387 1391 1380 1370 1372 1375 1379 1383 1387 1392 1396 1399 1403 1407 1411 1415 1420 1425 1429 1434 1439 1443 1447 1451 1456 1461 1465 1469 1473 1477 1481 1484 1488 1493 1497 1501 1505 1509 1513 1516 1518 1521 1523
1387 1390 1388 1386 1383 1376 1377 1377 1366 1364 1369 1372 1375 1377 1381 1384 1388 1391 1395 1399 1403 1407 1411 1416 1421 1426 1431 1435 1439 1444 1449 1453 1458 1462 1466 1470 1473 1477 1481 1485 1490 1494 1499 1503 1507 1510 1513 1516 1518
1384 1382 1379 1378 1369 1368 1369 1364 1359 1362 1364 1367 1370 1372 1374 1378 1381 1384 1388 1391 1395 1399 1403 1408 1413 1418 1422 1427 1432 1436 1441 1445 1449 1454 1459 1463 1467 1471 1475 1479 1483 1488 1492 1496 1500 1503 1507 1510 1512
1380 1379 1381 1382 1375 1370 1363 1359 1354 1357 1359 1362 1364 1366 1369 1372 1375 1378 1381 1384 1388 1392 1396 1400 1405 1410 1415 1419 1424 1428 1433 1437 1442 1447 1451 1455 1460 1464 1468 1472 1477 1481 1486 1490 1494 1497 1501 1504 1506
1377 1378 1377 1375 1367 1363 1359 1353 1347 1350 1353 1356 1357 1360 1363 1367 1370 1372 1375 1378 1381 1385 1389 1393 1397 1402 1407 1412 1416 1421 1425 1430 1435 1439 1444 1449 1453 1458 1462 1466 1470 1475 1479 1483 1487 1490 1494 1497 1501
1372 1373 1374 1371 1367 1360 1354 1350 1345 1346 1348 1351 1354 1357 1360 1363 1366 1368 1371 1373 1376 1379 1382 1386 1390 1395 1399 1404 1409 1414 1418 1423 1428 1432 1437 1442 1447 1451 1455 1460 1464 1468 1472 1476 1480 1484 1488 1491 1494